When you browse on this site, cookies collect data to enhance your experience and personalize the content and advertising you see.
Visit our Privacy Policy to learn more. By continuing to use the site, you agree to this use of cookies and data.
  • en France
  • Liste des pays
  • À 7 jours
  • Température de l'eau
  • Carte satellitaire
  • Carte météo
  • Widgets météo
  • user-avatar
    Se connecter

    Météo par heure à Lovetch

    Ce jour, 23 Mars, Samedi

    Heure Température Précipitation Vent Pression Humidité
    00:00 +9°C° 0 mm 1 m/s 743 mmHg 63%
    01:00 +9°C° 0 mm 1 m/s 743 mmHg 63%
    02:00 +9°C° 0 mm 1 m/s 743 mmHg 61%
    03:00 +9°C° 0 mm 1 m/s 743 mmHg 60%
    04:00 +8°C° 0 mm 1 m/s 743 mmHg 60%
    05:00 +8°C° 0 mm 1 m/s 743 mmHg 60%
    06:00 +9°C° 0 mm 1 m/s 743 mmHg 59%
    07:00 +10°C° 0 mm 1 m/s 743 mmHg 57%
    08:00 +10°C° 0 mm 0 m/s 742 mmHg 56%
    09:00 +11°C° 0 mm 0 m/s 742 mmHg 53%
    10:00 +14°C° 0 mm 1 m/s 742 mmHg 50%
    11:00 +15°C° 0 mm 1 m/s 742 mmHg 47%
    12:00 +16°C° 0 mm 1 m/s 741 mmHg 45%
    13:00 +16°C° 0 mm 2 m/s 741 mmHg 43%
    14:00 +18°C° 0 mm 3 m/s 740 mmHg 40%
    15:00 +17°C° 0 mm 2 m/s 740 mmHg 41%
    16:00 +17°C° 0 mm 2 m/s 740 mmHg 42%
    17:00 +17°C° 0 mm 2 m/s 740 mmHg 43%
    18:00 +15°C° 0 mm 1 m/s 740 mmHg 49%
    19:00 +14°C° 0 mm 1 m/s 740 mmHg 55%
    20:00 +12°C° 0 mm 1 m/s 741 mmHg 60%
    21:00 +10°C° 0 mm 2 m/s 741 mmHg 61%
    22:00 +10°C° 0 mm 2 m/s 741 mmHg 62%
    23:00 +9°C° 0 mm 3 m/s 742 mmHg 62%

    Demain, 24 Mars, Dimanche

    Heure Température Précipitation Vent Pression Humidité
    00:00 +9°C° 0 mm 3 m/s 742 mmHg 63%
    01:00 +8°C° 0 mm 3 m/s 742 mmHg 63%
    02:00 +8°C° 0 mm 3 m/s 742 mmHg 63%
    03:00 +8°C° 0 mm 2 m/s 742 mmHg 65%
    04:00 +7°C° 0 mm 2 m/s 742 mmHg 67%
    05:00 +8°C° 0 mm 1 m/s 742 mmHg 69%
    06:00 +8°C° 0 mm 1 m/s 742 mmHg 66%
    07:00 +9°C° 0 mm 1 m/s 742 mmHg 64%
    08:00 +10°C° 0 mm 1 m/s 742 mmHg 62%
    09:00 +11°C° 0 mm 1 m/s 742 mmHg 56%
    10:00 +13°C° 0 mm 1 m/s 741 mmHg 50%
    11:00 +14°C° 0 mm 1 m/s 741 mmHg 43%
    12:00 +15°C° 0 mm 1 m/s 741 mmHg 41%
    13:00 +15°C° 0 mm 1 m/s 740 mmHg 39%
    14:00 +16°C° 0 mm 2 m/s 740 mmHg 37%
    15:00 +16°C° 0 mm 1 m/s 740 mmHg 38%
    16:00 +16°C° 0 mm 1 m/s 739 mmHg 38%
    17:00 +16°C° 0 mm 1 m/s 739 mmHg 39%
    18:00 +14°C° 0 mm 1 m/s 739 mmHg 43%
    19:00 +13°C° 0 mm 1 m/s 739 mmHg 47%
    20:00 +11°C° 0 mm 1 m/s 739 mmHg 51%
    21:00 +11°C° 0 mm 1 m/s 739 mmHg 53%
    22:00 +11°C° 0 mm 1 m/s 738 mmHg 54%
    23:00 +10°C° 0 mm 1 m/s 738 mmHg 56%

    Après-demain, 25 Mars, Lundi

    Heure Température Précipitation Vent Pression Humidité
    00:00 +9°C° 0 mm 2 m/s 738 mmHg 57%
    01:00 +9°C° 0 mm 2 m/s 738 mmHg 58%
    02:00 +8°C° 0 mm 2 m/s 738 mmHg 59%
    03:00 +8°C° 0 mm 2 m/s 738 mmHg 60%
    04:00 +8°C° 0 mm 2 m/s 737 mmHg 61%
    05:00 +8°C° 0 mm 2 m/s 737 mmHg 61%
    06:00 +8°C° 0 mm 2 m/s 737 mmHg 59%
    07:00 +9°C° 0 mm 2 m/s 736 mmHg 57%
    08:00 +10°C° 0 mm 2 m/s 736 mmHg 55%
    09:00 +14°C° 0 mm 2 m/s 736 mmHg 47%
    10:00 +16°C° 0 mm 1 m/s 736 mmHg 39%
    11:00 +19°C° 0 mm 1 m/s 735 mmHg 31%
    12:00 +19°C° 0 mm 2 m/s 735 mmHg 30%
    13:00 +20°C° 0 mm 2 m/s 734 mmHg 29%
    14:00 +20°C° 0 mm 2 m/s 733 mmHg 28%
    15:00 +20°C° 0 mm 2 m/s 733 mmHg 29%
    16:00 +20°C° 0 mm 2 m/s 732 mmHg 31%
    17:00 +19°C° 0 mm 2 m/s 732 mmHg 32%
    18:00 +19°C° 0 mm 1 m/s 732 mmHg 36%
    19:00 +16°C° 0 mm 1 m/s 732 mmHg 40%
    20:00 +14°C° 0 mm 1 m/s 732 mmHg 44%
    21:00 +14°C° 0 mm 1 m/s 732 mmHg 46%
    22:00 +13°C° 0 mm 2 m/s 732 mmHg 49%
    23:00 +12°C° 0 mm 2 m/s 732 mmHg 51%

    26 Mars, Mardi

    Heure Température Précipitation Vent Pression Humidité
    00:00 +12°C° 0 mm 2 m/s 732 mmHg 52%
    01:00 +12°C° 0 mm 2 m/s 732 mmHg 53%
    02:00 +12°C° 0 mm 2 m/s 732 mmHg 54%
    03:00 +10°C° 0 mm 2 m/s 732 mmHg 54%
    04:00 +10°C° 0 mm 2 m/s 732 mmHg 54%
    05:00 +10°C° 0 mm 2 m/s 732 mmHg 55%
    06:00 +10°C° 0 mm 3 m/s 732 mmHg 60%
    07:00 +10°C° 0 mm 4 m/s 733 mmHg 65%
    08:00 +9°C° 0 mm 5 m/s 733 mmHg 70%
    09:00 +10°C° 0 mm 6 m/s 734 mmHg 66%
    10:00 +10°C° 0 mm 6 m/s 734 mmHg 63%
    11:00 +11°C° 0 mm 6 m/s 734 mmHg 60%
    12:00 +11°C° 0 mm 6 m/s 735 mmHg 59%
    13:00 +11°C° 0 mm 6 m/s 735 mmHg 59%
    14:00 +11°C° 0 mm 7 m/s 735 mmHg 58%
    15:00 +10°C° 0.2 mm 5 m/s 735 mmHg 61%
    16:00 +10°C° 0.2 mm 4 m/s 736 mmHg 64%
    17:00 +9°C° 0.2 mm 3 m/s 736 mmHg 67%
    18:00 +9°C° 0.6 mm 3 m/s 737 mmHg 72%
    19:00 +8°C° 0.6 mm 2 m/s 738 mmHg 77%
    20:00 +9°C° 0.6 mm 1 m/s 738 mmHg 83%
    21:00 +8°C° 0.4 mm 1 m/s 739 mmHg 84%
    22:00 +8°C° 0.4 mm 1 m/s 739 mmHg 85%
    23:00 +8°C° 0.4 mm 1 m/s 740 mmHg 87%

    27 Mars, Mercredi

    Heure Température Précipitation Vent Pression Humidité
    00:00 +8°C° 0.3 mm 1 m/s 740 mmHg 87%
    01:00 +7°C° 0.3 mm 1 m/s 740 mmHg 88%
    02:00 +6°C° 0.3 mm 2 m/s 741 mmHg 89%
    03:00 +6°C° 0.2 mm 2 m/s 741 mmHg 89%
    04:00 +6°C° 0.2 mm 2 m/s 741 mmHg 89%
    05:00 +6°C° 0.2 mm 2 m/s 741 mmHg 88%
    06:00 +6°C° 0.1 mm 2 m/s 741 mmHg 86%
    07:00 +5°C° 0.1 mm 3 m/s 742 mmHg 83%
    08:00 +5°C° 0.1 mm 3 m/s 742 mmHg 81%
    09:00 +7°C° 0.1 mm 3 m/s 742 mmHg 75%
    10:00 +8°C° 0.1 mm 3 m/s 743 mmHg 70%
    11:00 +9°C° 0.1 mm 3 m/s 743 mmHg 64%
    12:00 +9°C° 0 mm 3 m/s 743 mmHg 61%
    13:00 +10°C° 0 mm 3 m/s 742 mmHg 57%
    14:00 +11°C° 0 mm 3 m/s 742 mmHg 53%
    15:00 +11°C° 0 mm 3 m/s 742 mmHg 53%
    16:00 +11°C° 0 mm 3 m/s 742 mmHg 53%
    17:00 +12°C° 0 mm 2 m/s 742 mmHg 52%
    18:00 +10°C° 0 mm 2 m/s 742 mmHg 55%
    19:00 +9°C° 0 mm 2 m/s 743 mmHg 57%
    20:00 +9°C° 0 mm 1 m/s 743 mmHg 60%
    21:00 +9°C° 0 mm 1 m/s 743 mmHg 61%
    22:00 +8°C° 0 mm 1 m/s 743 mmHg 61%
    23:00 +8°C° 0 mm 1 m/s 744 mmHg 62%

    28 Mars, Jeudi

    Heure Température Précipitation Vent Pression Humidité
    00:00 +7°C° 0 mm 1 m/s 744 mmHg 64%
    01:00 +7°C° 0 mm 1 m/s 744 mmHg 67%
    02:00 +6°C° 0 mm 1 m/s 744 mmHg 69%
    03:00 +6°C° 0 mm 1 m/s 744 mmHg 71%
    04:00 +5°C° 0 mm 1 m/s 745 mmHg 73%
    05:00 +4°C° 0 mm 2 m/s 745 mmHg 75%
    06:00 +4°C° 0 mm 2 m/s 745 mmHg 71%
    07:00 +5°C° 0 mm 2 m/s 745 mmHg 68%
    08:00 +6°C° 0 mm 2 m/s 745 mmHg 65%
    09:00 +7°C° 0 mm 3 m/s 745 mmHg 58%
    10:00 +9°C° 0 mm 3 m/s 746 mmHg 52%
    11:00 +10°C° 0 mm 4 m/s 746 mmHg 46%
    12:00 +10°C° 0 mm 4 m/s 745 mmHg 45%
    13:00 +11°C° 0 mm 4 m/s 745 mmHg 45%
    14:00 +11°C° 0 mm 4 m/s 745 mmHg 44%
    15:00 +11°C° 0 mm 4 m/s 744 mmHg 44%
    16:00 +10°C° 0 mm 4 m/s 744 mmHg 43%
    17:00 +10°C° 0 mm 4 m/s 744 mmHg 43%
    18:00 +8°C° 0 mm 3 m/s 744 mmHg 46%
    19:00 +7°C° 0 mm 2 m/s 745 mmHg 48%
    20:00 +6°C° 0 mm 1 m/s 745 mmHg 51%
    21:00 +6°C° 0 mm 1 m/s 745 mmHg 50%
    22:00 +5°C° 0 mm 1 m/s 745 mmHg 49%
    23:00 +5°C° 0 mm 1 m/s 746 mmHg 48%
    Voir plus